Location: �mondeville
(49.4591°N, 1.3431°W)
Time: 23:49:09
(UTC+00:00)

CZ-2C R/B - Pass Details

Date: 22 October 2019
Orbit: 668 x 784 km, 98.1° (Epoch: 19 November)

Event Time Altitude Azimuth Distance (km) Brightness Sun altitude
Rises 05:54:35 0° 5° (N) 3,287 5.8 -7.6°
Reaches altitude 10° 05:57:14 10° 353° (N) 2,355 4.9 -7.1°
Maximum altitude 06:01:27 26° 299° (WNW) 1,512 3.5 -6.5°
Drops below altitude 10° 06:05:38 10° 245° (WSW) 2,322 4.5 -5.8°
Sets 06:08:15 0° 233° (SW) 3,232 5.3 -5.4°
